• In Uzbekistan
  • List of Countries
  • For 7 days
  • Water Temperature
  • Satellite Maps
  • Weather Map
  • Weather Widgets
  • user-avatar
    Login

    Hourly Weather Garissa

    Today, 18 November, Saturday

    Time Temperature Precipitation Wind Pressure Humidity
    00:00 +29°C° 0 mm 5 mps 744 mmHg 68%
    01:00 +29°C° 0.1 mm 5 mps 744 mmHg 70%
    02:00 +28°C° 0.1 mm 5 mps 744 mmHg 73%
    03:00 +28°C° 0.1 mm 4 mps 744 mmHg 76%
    04:00 +28°C° 0.2 mm 4 mps 744 mmHg 77%
    05:00 +27°C° 0.2 mm 3 mps 745 mmHg 78%
    06:00 +27°C° 0.2 mm 3 mps 745 mmHg 79%
    07:00 +28°C° 0.1 mm 3 mps 745 mmHg 75%
    08:00 +29°C° 0.1 mm 3 mps 746 mmHg 70%
    09:00 +30°C° 0.1 mm 3 mps 746 mmHg 66%
    10:00 +31°C° 0.1 mm 3 mps 746 mmHg 61%
    11:00 +32°C° 0.1 mm 2 mps 745 mmHg 57%
    12:00 +34°C° 0.1 mm 2 mps 745 mmHg 52%
    13:00 +34°C° 0.1 mm 2 mps 744 mmHg 50%
    14:00 +35°C° 0.1 mm 2 mps 744 mmHg 48%
    15:00 +35°C° 0.1 mm 2 mps 743 mmHg 47%
    16:00 +35°C° 0 mm 2 mps 743 mmHg 47%
    17:00 +35°C° 0 mm 2 mps 743 mmHg 47%
    18:00 +35°C° 0 mm 2 mps 743 mmHg 48%
    19:00 +34°C° 0 mm 3 mps 743 mmHg 51%
    20:00 +33°C° 0 mm 3 mps 744 mmHg 54%
    21:00 +33°C° 0 mm 4 mps 745 mmHg 57%
    22:00 +32°C° 0.1 mm 4 mps 745 mmHg 62%
    23:00 +30°C° 0.1 mm 5 mps 745 mmHg 66%

    Tomorrow, 19 November, Sunday

    Time Temperature Precipitation Wind Pressure Humidity
    00:00 +29°C° 0.1 mm 6 mps 745 mmHg 71%
    01:00 +29°C° 0.3 mm 5 mps 745 mmHg 73%
    02:00 +28°C° 0.3 mm 4 mps 744 mmHg 74%
    03:00 +28°C° 0.3 mm 3 mps 744 mmHg 76%
    04:00 +28°C° 0.2 mm 3 mps 744 mmHg 77%
    05:00 +27°C° 0.2 mm 2 mps 745 mmHg 78%
    06:00 +27°C° 0.2 mm 2 mps 745 mmHg 80%
    07:00 +28°C° 0.4 mm 2 mps 745 mmHg 74%
    08:00 +29°C° 0.4 mm 3 mps 746 mmHg 69%
    09:00 +30°C° 0.4 mm 3 mps 747 mmHg 63%
    10:00 +31°C° 0.4 mm 3 mps 746 mmHg 58%
    11:00 +34°C° 0.4 mm 3 mps 746 mmHg 52%
    12:00 +35°C° 0.4 mm 2 mps 745 mmHg 46%
    13:00 +35°C° 0 mm 2 mps 745 mmHg 45%
    14:00 +35°C° 0 mm 2 mps 744 mmHg 44%
    15:00 +35°C° 0 mm 2 mps 743 mmHg 43%
    16:00 +35°C° 0 mm 2 mps 743 mmHg 44%
    17:00 +35°C° 0 mm 2 mps 743 mmHg 44%
    18:00 +35°C° 0 mm 2 mps 743 mmHg 45%
    19:00 +34°C° 0 mm 3 mps 744 mmHg 50%
    20:00 +33°C° 0 mm 4 mps 745 mmHg 56%
    21:00 +30°C° 0 mm 6 mps 745 mmHg 61%
    22:00 +30°C° 0 mm 5 mps 745 mmHg 65%
    23:00 +29°C° 0 mm 5 mps 745 mmHg 69%

    Day after tomorrow, 20 November, Monday

    Time Temperature Precipitation Wind Pressure Humidity
    00:00 +29°C° 0 mm 5 mps 746 mmHg 73%
    01:00 +28°C° 0.4 mm 4 mps 745 mmHg 75%
    02:00 +28°C° 0.4 mm 4 mps 745 mmHg 78%
    03:00 +28°C° 0.4 mm 4 mps 744 mmHg 80%
    04:00 +27°C° 0.8 mm 3 mps 745 mmHg 80%
    05:00 +27°C° 0.8 mm 3 mps 745 mmHg 81%
    06:00 +27°C° 0.8 mm 2 mps 745 mmHg 81%
    07:00 +28°C° 0.1 mm 3 mps 746 mmHg 75%
    08:00 +29°C° 0.1 mm 3 mps 746 mmHg 69%
    09:00 +30°C° 0.1 mm 3 mps 747 mmHg 62%
    10:00 +31°C° 0 mm 3 mps 746 mmHg 57%
    11:00 +33°C° 0 mm 3 mps 746 mmHg 51%
    12:00 +35°C° 0 mm 2 mps 746 mmHg 45%
    13:00 +35°C° 0 mm 2 mps 745 mmHg 42%
    14:00 +36°C° 0 mm 2 mps 744 mmHg 40%
    15:00 +36°C° 0 mm 2 mps 743 mmHg 37%
    16:00 +36°C° 0 mm 2 mps 743 mmHg 38%
    17:00 +36°C° 0 mm 2 mps 743 mmHg 39%
    18:00 +36°C° 0 mm 2 mps 743 mmHg 40%
    19:00 +35°C° 0 mm 3 mps 744 mmHg 44%
    20:00 +34°C° 0 mm 4 mps 744 mmHg 49%
    21:00 +33°C° 0 mm 4 mps 745 mmHg 53%
    22:00 +32°C° 0 mm 5 mps 745 mmHg 60%
    23:00 +30°C° 0 mm 5 mps 745 mmHg 66%

    21 November, Tuesday

    Time Temperature Precipitation Wind Pressure Humidity
    00:00 +29°C° 0 mm 5 mps 745 mmHg 72%
    01:00 +28°C° 0 mm 5 mps 745 mmHg 74%
    02:00 +28°C° 0 mm 4 mps 744 mmHg 76%
    03:00 +28°C° 0 mm 4 mps 744 mmHg 77%
    04:00 +27°C° 0.2 mm 3 mps 744 mmHg 79%
    05:00 +27°C° 0.2 mm 3 mps 745 mmHg 81%
    06:00 +27°C° 0.2 mm 2 mps 745 mmHg 82%
    07:00 +28°C° 0.1 mm 2 mps 745 mmHg 76%
    08:00 +29°C° 0.1 mm 3 mps 746 mmHg 70%
    09:00 +30°C° 0.1 mm 3 mps 746 mmHg 64%
    10:00 +31°C° 0.1 mm 3 mps 746 mmHg 59%
    11:00 +33°C° 0.1 mm 3 mps 745 mmHg 54%
    12:00 +34°C° 0.1 mm 2 mps 744 mmHg 49%
    13:00 +35°C° 0 mm 2 mps 743 mmHg 48%
    14:00 +35°C° 0 mm 2 mps 742 mmHg 47%
    15:00 +35°C° 0 mm 2 mps 742 mmHg 46%
    16:00 +35°C° 0 mm 2 mps 742 mmHg 47%
    17:00 +35°C° 0 mm 2 mps 742 mmHg 47%
    18:00 +34°C° 0 mm 2 mps 742 mmHg 48%
    19:00 +34°C° 0 mm 3 mps 743 mmHg 51%
    20:00 +33°C° 0 mm 4 mps 744 mmHg 55%
    21:00 +32°C° 0 mm 4 mps 744 mmHg 58%
    22:00 +30°C° 0 mm 5 mps 744 mmHg 63%
    23:00 +30°C° 0 mm 5 mps 744 mmHg 68%

    22 November, Wednesday

    Time Temperature Precipitation Wind Pressure Humidity
    00:00 +29°C° 0 mm 5 mps 744 mmHg 73%
    01:00 +28°C° 0.5 mm 5 mps 744 mmHg 76%
    02:00 +28°C° 0.5 mm 5 mps 743 mmHg 79%
    03:00 +27°C° 0.5 mm 4 mps 743 mmHg 81%
    04:00 +27°C° 0.4 mm 4 mps 743 mmHg 82%
    05:00 +27°C° 0.4 mm 4 mps 744 mmHg 83%
    06:00 +27°C° 0.4 mm 3 mps 744 mmHg 84%
    07:00 +28°C° 0 mm 3 mps 745 mmHg 78%
    08:00 +29°C° 0 mm 3 mps 745 mmHg 73%
    09:00 +30°C° 0 mm 3 mps 746 mmHg 68%
    10:00 +31°C° 0 mm 3 mps 745 mmHg 62%
    11:00 +32°C° 0 mm 2 mps 744 mmHg 57%
    12:00 +34°C° 0 mm 2 mps 744 mmHg 51%
    13:00 +35°C° 0 mm 2 mps 743 mmHg 50%
    14:00 +35°C° 0 mm 2 mps 742 mmHg 48%
    15:00 +35°C° 0 mm 2 mps 741 mmHg 46%
    16:00 +35°C° 0 mm 2 mps 741 mmHg 47%
    17:00 +35°C° 0 mm 3 mps 742 mmHg 48%
    18:00 +35°C° 0 mm 3 mps 742 mmHg 49%
    19:00 +34°C° 0 mm 3 mps 742 mmHg 53%
    20:00 +33°C° 0 mm 4 mps 743 mmHg 56%
    21:00 +33°C° 0 mm 4 mps 744 mmHg 59%
    22:00 +32°C° 0 mm 5 mps 744 mmHg 64%
    23:00 +30°C° 0 mm 5 mps 744 mmHg 69%

    23 November, Thursday

    Time Temperature Precipitation Wind Pressure Humidity
    00:00 +29°C° 0 mm 5 mps 744 mmHg 74%
    01:00 +29°C° 0.2 mm 5 mps 743 mmHg 76%
    02:00 +28°C° 0.2 mm 4 mps 743 mmHg 77%
    03:00 +28°C° 0.2 mm 4 mps 743 mmHg 79%
    04:00 +28°C° 0.1 mm 4 mps 743 mmHg 79%
    05:00 +27°C° 0.1 mm 3 mps 744 mmHg 80%
    06:00 +27°C° 0.1 mm 3 mps 744 mmHg 80%
    07:00 +28°C° 0.2 mm 4 mps 745 mmHg 76%
    08:00 +29°C° 0.2 mm 4 mps 745 mmHg 72%
    09:00 +30°C° 0.2 mm 4 mps 746 mmHg 68%
    10:00 +32°C° 0.7 mm 4 mps 745 mmHg 63%
    11:00 +33°C° 0.7 mm 3 mps 744 mmHg 58%
    12:00 +34°C° 0.7 mm 3 mps 744 mmHg 54%
    13:00 +34°C° 0 mm 3 mps 743 mmHg 52%
    14:00 +35°C° 0 mm 3 mps 742 mmHg 50%
    15:00 +35°C° 0 mm 2 mps 742 mmHg 48%
    16:00 +35°C° 0 mm 2 mps 742 mmHg 49%
    17:00 +35°C° 0 mm 2 mps 742 mmHg 49%
    18:00 +35°C° 0 mm 3 mps 742 mmHg 50%
    19:00 +34°C° 0 mm 3 mps 743 mmHg 53%
    20:00 +33°C° 0 mm 3 mps 743 mmHg 56%
    21:00 +33°C° 0 mm 3 mps 744 mmHg 59%
    22:00 +32°C° 0 mm 4 mps 744 mmHg 62%
    23:00 +30°C° 0 mm 5 mps 744 mmHg 66%
    Show more